Dayton Wright, OH

7:20 AM EDT on September 20, 2017 (GMT -0400)
Dayton-Wright Brothers

Weather History for KMGY - October, 2012

Change the Weather History Date:

Sunday, October 14, 2012

  Actual Average (KFFO) Record (KFFO)
Temperature  
Mean Temperature 66 °F -  
Max Temperature 71 °F 62 °F 78 °F (2000)
Min Temperature 59 °F 41 °F 30 °F (2002)
Growing Degree Days 16 (Base 50)    
Moisture  
Dew Point 58 °F    
Average Humidity 78    
Maximum Humidity 96    
Minimum Humidity 63    
Precipitation  
Precipitation 0.14 in - - ()
Sea Level Pressure  
Sea Level Pressure 29.85 in    
Wind  
Wind Speed 14 mph (SSW)    
Max Wind Speed 24 mph    
Max Gust Speed 37 mph    
Visibility 10 miles    
Events Rain    
Averages and records for this station are not official NWS values.
T = Trace of Precipitation, MM = Missing Value Source: NWS Daily Summary

Daily Weather History Graph

Daily Weather History Graph

Search for Another Location

Airport or City:

Trip Planner

Search our weather history database for the weather conditions in past years. The results will help you decide how hot, cold, wet, or windy it might be!

Date:

Astronomy

Oct. 14, 2012 Rise Set
Actual Time 7:46 AM EDT 6:58 PM EDT
Civil Twilight 7:19 AM EDT 7:25 PM EDT
Nautical Twilight 6:48 AM EDT 7:56 PM EDT
Astronomical Twilight 6:16 AM EDT 8:27 PM EDT
Moon 6:44 AM EDT (10/14) 6:17 PM EDT (10/14)
Length of Visible Light 12h 06m
Length of Day
11h 12m
Waning Crescent, 1% of the Moon is Illuminated
Oct 14
Waning Crescent
Oct 15
New
Oct 21
First Quarter
Oct 29
Full
Nov 6
Last Quarter

Hourly Weather History & Observations

Time (EDT) Temp. Dew Point Humidity Pressure Visibility Wind Dir Wind Speed Gust Speed Precip Events Conditions
1:53 AM 66.0 °F 59.0 °F 78% 30.00 in 10.0 mi SSW 8.1 mph 17.3 mph N/A   Mostly Cloudy
2:53 AM 64.9 °F 59.0 °F 81% 29.98 in 10.0 mi SSW 10.4 mph - N/A   Clear
3:53 AM 64.0 °F 59.0 °F 84% 29.97 in 10.0 mi South 11.5 mph - N/A   Mostly Cloudy
4:53 AM 64.0 °F 57.9 °F 80% 29.98 in 10.0 mi South 12.7 mph - N/A   Mostly Cloudy
5:42 AM 64.4 °F 57.2 °F 77% 29.98 in 10.0 mi South 12.7 mph - N/A   Mostly Cloudy
5:53 AM 63.0 °F 57.0 °F 81% 29.97 in 10.0 mi South 13.8 mph 24.2 mph N/A   Mostly Cloudy
6:53 AM 63.0 °F 55.9 °F 78% 29.97 in 10.0 mi South 12.7 mph - N/A   Overcast
7:31 AM 62.6 °F 55.4 °F 77% 29.97 in 10.0 mi South 15.0 mph - N/A   Overcast
7:53 AM 62.1 °F 55.0 °F 78% 29.95 in 10.0 mi South 16.1 mph - N/A   Overcast
8:35 AM 62.6 °F 55.4 °F 77% 29.96 in 10.0 mi South 15.0 mph - N/A   Overcast
8:53 AM 63.0 °F 55.0 °F 75% 29.95 in 10.0 mi South 13.8 mph 24.2 mph N/A   Overcast
9:36 AM 64.4 °F 55.4 °F 73% 29.94 in 10.0 mi South 19.6 mph 26.5 mph N/A   Overcast
9:53 AM 64.0 °F 55.0 °F 73% 29.92 in 10.0 mi South 17.3 mph 27.6 mph N/A   Mostly Cloudy
10:53 AM 66.9 °F 55.9 °F 68% 29.89 in 10.0 mi South 23.0 mph 35.7 mph N/A   Mostly Cloudy
11:53 AM 69.1 °F 57.9 °F 68% 29.86 in 10.0 mi SSW 17.3 mph 35.7 mph N/A   Mostly Cloudy
12:53 PM 70.0 °F 59.0 °F 68% 29.81 in 10.0 mi South 24.2 mph 36.8 mph N/A   Mostly Cloudy
1:53 PM 71.1 °F 57.9 °F 63% 29.80 in 10.0 mi SSW 18.4 mph 35.7 mph N/A   Overcast
2:53 PM 68.0 °F 61.0 °F 78% 29.78 in 7.0 mi SSW 17.3 mph 24.2 mph 0.00 in Rain Light Rain
3:53 PM 69.1 °F 62.1 °F 78% 29.74 in 10.0 mi South 19.6 mph 31.1 mph 0.01 in   Overcast
4:53 PM 69.1 °F 61.0 °F 75% 29.71 in 5.0 mi SSW 18.4 mph 26.5 mph 0.03 in   Haze
5:53 PM 68.0 °F 61.0 °F 78% 29.70 in 10.0 mi SW 10.4 mph 19.6 mph 0.01 in   Overcast
6:53 PM 66.0 °F 62.1 °F 87% 29.69 in 10.0 mi SSW 12.7 mph 18.4 mph 0.02 in   Partly Cloudy
7:53 PM 66.0 °F 61.0 °F 84% 29.69 in 10.0 mi SSW 13.8 mph 23.0 mph N/A   Clear
8:53 PM 66.0 °F 59.0 °F 78% 29.69 in 10.0 mi SW 17.3 mph 26.5 mph N/A   Partly Cloudy
9:53 PM 64.9 °F 57.9 °F 78% 29.71 in 10.0 mi SSW 15.0 mph 23.0 mph N/A   Mostly Cloudy
10:53 PM 64.0 °F 57.0 °F 78% 29.73 in 8.0 mi West 21.9 mph 29.9 mph 0.01 in   Overcast
11:11 PM 60.8 °F 55.4 °F 82% 29.76 in 6.0 mi WSW 15.0 mph 21.9 mph 0.03 in Rain Rain
11:53 PM 59.0 °F 57.9 °F 96% 29.75 in 10.0 mi West 9.2 mph - 0.06 in   Overcast